STARLINK-5213, 54093

Orbit data source: Space-Track

STARLINK-5213, 54093 is a payload satellite owned by SpaceX/Seattle (US) in LEO that was launched on Thu, 20 Oct 2022 UTC via an FALCON 9 launch vehicle from the Air Force Eastern Test Range (AFETR). Payload-class satellites include a variety of spacecraft equipped with specific instruments for various scientific and technological missions. These include communications satellites like Starlink; space stations such as the ISS; scientific satellites like the Hubble; Earth observation satellites from companies like Planet Labs, Umbra, and HawkEye 360; GPS; miniature CubeSats for education and research; and military/defense satellites.

Loading next visibility...
Identifier
54093, 2022-136AU
Orbit
LEO
Country
Flag of USUS
Related business
Manufacturer
SpaceX/Seattle
Mission
Operational Commercial Communications
Bus & Motor
STARLINK, Unknown motor
Mass
305 kg wet, ~290 kg dry
Launch date (UTC)
2022-10-20 (4 years ago)
Launch vehicle
FALCON 9
Launch site
Air Force Eastern Test Range (AFETR)
Object type
Payload
Rocket body
Debris
Shape & HBR
Box + 1 Pan, 10.1 m
Radar Cross Section
13.562 m², Large (>1 m²)

Expand to show TLE details & history
Last TLE update: 2 days ago

TLE from 2 days ago
0 STARLINK-5213
1 54093U 22136AU  26171.46818481  .00000242  00000-0  33308-4 0  9991
2 54093  53.1587 232.3621 0001120  67.7233 292.3877 15.08834578202509
Epoch: 2026-06-20T11:14Z
TLE epoch observation values (Epoch: 2026-06-20T11:14:11.167Z)
Latitude
-0.00004°
Longitude
155.13317°
Altitude
540.356 km
Speed
7.594 km/s
True Right ascension
15h 29m 26s
True Declination
0° 00' 00"
Sunlit
Object was in full shadow at epoch
Visualization orbit readout
Latitude
Unknown
Longitude
Unknown
Altitude
Unknown
Speed
Unknown
Apparent Right ascension
Unknown
Apparent Declination
Unknown
Sunlit
N/A
Visualization observer readout
Local Sidereal Time
23:19:46
Azimuth
Unknown
Elevation
Unknown
Doppler factor
Unknown
Orbital elements
Apogee altitude
540.789 km
Perigee altitude
539.239 km
Semi-major axis
6,918.151 km
Eccentricity
0.00011
Inclination
53.1587°
RAAN
232.3621°
Arg. of periapsis
67.7233°
True anomaly
292.37583°
Mean anomaly
292.3877°
Eccentric anomaly
292.38177°
Mean motion
3.77188 °/min
Orbital period
95.44 mins
BSTAR
0.000033308
Loading maneuver chart data...
Computing Atmospheric mass density...
Loading historical data...
Loading historical data...
Loading historical data...
Loading historical data...
Loading historical data...
Loading historical data...
Loading historical data...

Documentation

Showing up to 5 results
|